[[{"header":{"parameterUnit":"m.s-1","parameterCategory":1,"la1":30.2991,"la2":30.254,"lo1":-89.0895,"lo2":-89.0444,"dx":0.0017,"dy":0.0017,"nx":28,"ny":28,"refTime":"2023-01-13T09:00:00:Z","depth":0,"parameterNumber":2,"parameterNumberName":"U-component_of_WINDS"},"data":[0,0,0,0,0,0,0,0,0,0,0,0,0,0,0,0,0,0,0,0,0,0,0,0,0,0,0,0,0,0,0,0,0,0,0,0,0,0,0,0,0,0,0,0,0,0,0,0,0,0,0,0,0,0,0,0,0,0,1.4521,1.4521,0,1.4545,1.4545,1.4545,1.4551,1.4551,1.455,1.455,1.4575,1.4575,1.4576,0,0,0,0,0,0,0,0,0,0,0,0,0,1.4479,1.448,1.4521,1.4521,1.4521,1.4545,1.4545,1.4546,1.4551,1.4551,1.455,1.455,1.4574,1.4575,1.4576,0,0,0,0,0,0,0,0,0,0,0,0,0,1.45,1.448,1.4521,1.4527,1.4527,1.4545,1.4545,1.4546,1.4551,1.4551,1.455,1.455,1.4574,1.4575,1.4576,1.4589,0,0,1.458,1.4581,0,0,0,0,0,0,0,0,1.4499,1.4501,1.4525,1.4526,1.4527,1.4545,1.454,1.456,1.4551,1.4542,1.455,1.455,1.4565,1.4567,1.4572,1.459,1.4591,1.458,1.4581,1.4581,1.4582,0,0,0,0,0,0,0,1.4497,1.45,1.453,1.4526,1.4527,1.4528,1.4531,1.4544,1.4554,1.4543,1.4543,1.4546,1.4565,1.4571,1.4572,1.4592,1.458,1.4581,1.4582,1.4582,1.4623,1.4624,0,0,0,0,0,0,1.4495,1.4499,1.4529,1.4531,1.4512,1.4529,1.4532,1.4539,1.4554,1.4556,1.4546,1.4546,1.4569,1.4571,1.4573,1.459,1.4581,1.4583,1.4583,1.4623,1.4623,1.4624,0,0,0,0,0,0,1.4494,1.4497,1.4528,1.4515,1.4519,1.453,1.4538,1.454,1.4545,1.4557,1.4559,1.455,1.4569,1.4572,1.4585,1.4591,1.4583,1.4584,1.4623,1.4623,1.4624,1.4623,0,0,0,0,0,0,1.4493,1.4497,1.4502,1.4515,1.452,1.454,1.4538,1.4541,1.4547,1.4548,1.4561,1.4563,1.4569,1.4584,1.4587,1.4592,1.4585,1.4622,1.4623,1.4623,1.4623,1.4623,1.4624,0,0,0,0,0,1.4491,1.45,1.4502,1.4505,1.4526,1.454,1.4543,1.455,1.4548,1.4553,1.4561,1.4562,1.459,1.4585,1.4588,1.4595,1.4622,1.4623,1.4623,1.4622,1.4623,1.4624,0,0,0,0,0,0,1.4486,1.4502,1.4504,1.4518,1.4528,1.4541,1.4547,1.455,1.4561,1.456,1.4568,1.4571,1.4585,1.4591,1.4585,1.4609,1.4606,1.4607,1.4604,1.4605,1.4606,1.4604,1.4586,0,0,0,0,0,1.4487,1.4497,1.451,1.4521,1.4526,1.4536,1.4542,1.4547,1.4557,1.4562,1.457,1.458,1.4592,1.4599,1.4609,1.4624,1.4627,1.463,1.4631,1.4631,1.4632,1.4642,1.4643,1.4626,1.4626,1.4626,0,0,1.4488,1.4498,1.4504,1.452,1.4529,1.4539,1.4539,1.455,1.4559,1.4563,1.4577,1.4584,1.4596,1.4611,1.4617,1.4616,1.4638,1.4632,1.4633,1.4633,1.4643,1.4644,1.4645,1.4627,1.4627,1.4627,0,0,1.4496,1.4504,1.4514,1.4523,1.4536,1.4543,1.4545,1.4559,1.4564,1.4578,1.4582,1.4592,1.4611,1.4619,1.4626,1.4639,1.4641,1.4642,1.4646,1.4655,1.4656,1.4658,1.4663,1.4664,1.4644,1.4644,1.4644,0,1.4495,1.4511,1.4519,1.4531,1.4538,1.4544,1.4555,1.4563,1.4578,1.4583,1.4582,1.4607,1.4615,1.4632,1.4636,1.4641,1.4644,1.4641,1.4656,1.4657,1.4658,1.4663,1.4665,1.4644,1.4644,1.4644,1.4644,0,1.4511,1.4522,1.4529,1.4545,1.4553,1.4564,1.4574,1.4582,1.4586,1.4593,1.4608,1.4619,1.4632,1.4637,1.4641,1.4655,1.4654,1.4654,1.4651,1.466,1.4665,1.4666,1.4644,1.4644,1.4644,1.4644,0,0,1.4515,1.4536,1.4538,1.4546,1.4561,1.457,1.4582,1.4596,1.4602,1.4613,1.4624,1.464,1.4641,1.4649,1.4654,1.4662,1.4672,1.4661,1.4662,1.4663,1.469,1.4689,1.4691,1.4674,1.4675,1.4675,1.4689,0,1.4524,1.4545,1.4553,1.4571,1.4582,1.4588,1.4599,1.4609,1.4617,1.4628,1.4636,1.4648,1.4648,1.4653,1.4661,1.4669,1.4678,1.4669,1.4684,1.4685,1.4681,1.4694,1.4693,1.4705,1.4691,1.4691,1.4691,0,1.4538,1.455,1.4568,1.4584,1.4589,1.4598,1.4612,1.4622,1.4635,1.464,1.4649,1.4654,1.4668,1.4665,1.4683,1.4677,1.4684,1.469,1.469,1.4692,1.4688,1.4695,1.4709,1.4711,1.4694,1.4694,1.4694,0,1.4539,1.456,1.4574,1.458,1.4598,1.4605,1.4613,1.4625,1.4634,1.4646,1.4651,1.4665,1.4672,1.4683,1.4692,1.4689,1.471,1.4708,1.4715,1.4715,1.4718,1.4718,1.4734,1.4723,1.4723,1.4723,1.4723,0,1.4549,1.456,1.4575,1.4584,1.4597,1.4607,1.4619,1.4628,1.4639,1.465,1.4656,1.4666,1.4677,1.4689,1.4696,1.4711,1.4714,1.4719,1.4721,1.4718,1.4718,1.4723,1.4722,1.4724,1.4724,1.4724,1.4724,0,1.4552,1.4563,1.4579,1.4595,1.4599,1.4608,1.4622,1.4631,1.464,1.4653,1.4657,1.467,1.4684,1.4695,1.4713,1.4718,1.4733,1.4735,1.4729,1.473,1.4737,1.4736,1.4755,1.4759,1.4746,1.4747,1.4747,0,1.4558,1.4566,1.4584,1.4592,1.46,1.4612,1.4621,1.4631,1.464,1.4657,1.4664,1.4679,1.4691,1.4713,1.4724,1.4739,1.4741,1.4747,1.4743,1.4741,1.4741,1.474,1.4742,1.4747,1.4747,1.4747,1.4747,0,1.4566,1.4571,1.4584,1.4598,1.4609,1.462,1.4632,1.4638,1.4651,1.4661,1.4676,1.4685,1.4705,1.4719,1.4735,1.4743,1.4748,1.4749,1.4751,1.4749,1.4745,1.4747,1.4731,1.4748,1.4748,1.4748,1.4748,1.4748,1.4571,1.4579,1.4594,1.4607,1.4618,1.4629,1.4639,1.4649,1.4661,1.4678,1.4683,1.4699,1.4713,1.4734,1.4743,1.4756,1.4756,1.4759,1.476,1.476,1.4761,1.4743,1.4759,1.4759,1.4759,1.4759,1.4759,0,1.458,1.459,1.4602,1.4619,1.4631,1.4634,1.4648,1.4657,1.4671,1.4684,1.4696,1.4714,1.4728,1.4741,1.4757,1.4765,1.4767,1.4768,1.4768,1.477,1.476,1.4756,1.4766,1.4766,1.4766,1.4766,1.4766,1.4766,1.4586,1.4601,1.4608,1.4629,1.4638,1.4654,1.4662,1.4672,1.4683,1.4702,1.4715,1.4723,1.4737,1.4753,1.4767,1.4771,1.4776,1.4777,1.4781,1.4771,1.477,1.4769,1.4766,1.4778,1.4778,1.479,1.479,1.479]},{"header":{"parameterUnit":"m.s-1","parameterCategory":1,"la1":30.2991,"la2":30.254,"lo1":-89.0895,"lo2":-89.0444,"dx":0.0017,"dy":0.0017,"nx":28,"ny":28,"refTime":"2023-01-13T09:00:00:Z","depth":0,"parameterNumber":3,"parameterNumberName":"V-component_of_WINDS"},"data":[0,0,0,0,0,0,0,0,0,0,0,0,0,0,0,0,0,0,0,0,0,0,0,0,0,0,0,0,0,0,0,0,0,0,0,0,0,0,0,0,0,0,0,0,0,0,0,0,0,0,0,0,0,0,0,0,0,0,-6.9426,-6.9427,0,-6.9529,-6.953,-6.9531,-6.9434,-6.943,-6.9426,-6.9423,-6.9524,-6.953,-6.9536,0,0,0,0,0,0,0,0,0,0,0,0,0,-6.914,-6.9146,-6.9426,-6.9427,-6.9428,-6.9529,-6.953,-6.9531,-6.9435,-6.943,-6.9425,-6.9421,-6.9522,-6.9529,-6.9537,0,0,0,0,0,0,0,0,0,0,0,0,0,-6.9256,-6.9148,-6.9425,-6.9392,-6.939,-6.9528,-6.953,-6.9532,-6.9436,-6.943,-6.9424,-6.9419,-6.9519,-6.9528,-6.9538,-6.9713,0,0,-6.9567,-6.9571,0,0,0,0,0,0,0,0,-6.9249,-6.9266,-6.9396,-6.9395,-6.9393,-6.9463,-6.9466,-6.9592,-6.9437,-6.9418,-6.9422,-6.9416,-6.9508,-6.9518,-6.955,-6.9717,-6.9722,-6.9568,-6.9573,-6.9577,-6.958,0,0,0,0,0,0,0,-6.9241,-6.9261,-6.9466,-6.9398,-6.9396,-6.937,-6.938,-6.949,-6.9494,-6.9419,-6.9413,-6.9426,-6.9506,-6.9541,-6.9552,-6.9723,-6.9567,-6.9576,-6.9582,-6.9585,-7.0038,-7.0044,0,0,0,0,0,0,-6.9237,-6.9255,-6.9463,-6.9469,-6.9305,-6.938,-6.9391,-6.9446,-6.9493,-6.9494,-6.9431,-6.9421,-6.9528,-6.9541,-6.9555,-6.9762,-6.9577,-6.9586,-6.9592,-7.0032,-7.0039,-7.0046,0,0,0,0,0,0,-6.9232,-6.9257,-6.9459,-6.9361,-6.9384,-6.9391,-6.9453,-6.9451,-6.9486,-6.9502,-6.9502,-6.9467,-6.9524,-6.9541,-6.9674,-6.9764,-6.959,-6.9599,-7.0024,-7.0034,-7.0043,-7.0179,0,0,0,0,0,0,-6.9224,-6.9256,-6.9323,-6.9363,-6.939,-6.9579,-6.9459,-6.9457,-6.9503,-6.9491,-6.9535,-6.9537,-6.952,-6.9661,-6.9684,-6.9774,-6.9606,-7.0016,-7.0029,-7.004,-7.0166,-7.0191,-7.0213,0,0,0,0,0,-6.9214,-6.9357,-6.9327,-6.9353,-6.9475,-6.9584,-6.9599,-6.9579,-6.9511,-6.9578,-6.9588,-6.9535,-6.9751,-6.9675,-6.97,-6.9795,-7.001,-7.0025,-7.0039,-7.0155,-7.0186,-7.0213,0,0,0,0,0,0,-6.9326,-6.9361,-6.9329,-6.9489,-6.9534,-6.9567,-6.9652,-6.9613,-6.9677,-6.9663,-6.9634,-6.9644,-6.9785,-6.9803,-6.9718,-6.9966,-6.9869,-6.9889,-6.9949,-6.9979,-7.0002,-6.9995,-6.9614,0,0,0,0,0,-6.937,-6.9457,-6.9482,-6.962,-6.9645,-6.9645,-6.9691,-6.9672,-6.9717,-6.9735,-6.9755,-6.98,-6.9877,-6.9929,-7.0001,-7.0168,-7.0175,-7.0245,-7.0269,-7.0288,-7.0306,-7.0394,-7.0425,-7.0093,-7.0093,-7.0093,0,0,-6.946,-6.949,-6.9546,-6.9644,-6.9677,-6.9766,-6.9662,-6.976,-6.9826,-6.975,-6.9877,-6.9893,-6.994,-7.0091,-7.0158,-7.011,-7.0399,-7.0306,-7.0322,-7.0329,-7.0412,-7.0444,-7.0472,-7.0103,-7.0101,-7.01,0,0,-6.967,-6.9702,-6.9821,-6.9856,-6.9908,-6.9907,-6.9935,-6.9975,-6.9983,-7.011,-7.0054,-7.0131,-7.0265,-7.0302,-7.0338,-7.0561,-7.0515,-7.0585,-7.0709,-7.0796,-7.0822,-7.0845,-7.0924,-7.0953,-7.0603,-7.0603,-7.0603,0,-6.9776,-6.991,-6.9886,-6.999,-7.0034,-6.997,-7.0089,-7.0124,-7.0196,-7.0227,-7.0173,-7.034,-7.0368,-7.0525,-7.058,-7.0611,-7.0642,-7.058,-7.082,-7.0843,-7.0864,-7.0939,-7.0969,-7.0611,-7.061,-7.061,-7.0609,0,-7.0036,-7.013,-7.0219,-7.0292,-7.0346,-7.0457,-7.0449,-7.0505,-7.0481,-7.0485,-7.0615,-7.0646,-7.0723,-7.0759,-7.0736,-7.0913,-7.0882,-7.0825,-7.0727,-7.0904,-7.0974,-7.1003,-7.0623,-7.062,-7.0618,-7.0616,0,0,-7.032,-7.0379,-7.0412,-7.0444,-7.0496,-7.0567,-7.0674,-7.0751,-7.08,-7.0852,-7.094,-7.1055,-7.1002,-7.1043,-7.1023,-7.1099,-7.1274,-7.1032,-7.1033,-7.1076,-7.147,-7.1513,-7.1547,-7.1243,-7.1248,-7.1253,-7.1466,0,-7.0532,-7.072,-7.0702,-7.088,-7.0965,-7.0906,-7.0999,-7.104,-7.1047,-7.1118,-7.1124,-7.1207,-7.1131,-7.1155,-7.1228,-7.1237,-7.1352,-7.1221,-7.1323,-7.1327,-7.1314,-7.1584,-7.163,-7.183,-7.1493,-7.1498,-7.1501,0,-7.0805,-7.0867,-7.1054,-7.1093,-7.1128,-7.1212,-7.1281,-7.1351,-7.1396,-7.1395,-7.1441,-7.1408,-7.1513,-7.1414,-7.1558,-7.147,-7.151,-7.1521,-7.1528,-7.1536,-7.1425,-7.1599,-7.1893,-7.1923,-7.1544,-7.1541,-7.1538,0,-7.0993,-7.1124,-7.1252,-7.1281,-7.133,-7.139,-7.1413,-7.1452,-7.1499,-7.1558,-7.1588,-7.1659,-7.1697,-7.1752,-7.1738,-7.1667,-7.1886,-7.1785,-7.1887,-7.1887,-7.1935,-7.1933,-7.224,-7.1962,-7.1962,-7.1961,-7.1961,0,-7.1231,-7.1348,-7.1337,-7.1417,-7.1545,-7.1522,-7.1649,-7.1664,-7.1699,-7.1779,-7.1731,-7.1806,-7.1783,-7.1857,-7.1846,-7.1967,-7.1985,-7.1986,-7.1982,-7.1991,-7.199,-7.2016,-7.2002,-7.1969,-7.1967,-7.1966,-7.1964,0,-7.1463,-7.1461,-7.1597,-7.1632,-7.1644,-7.1737,-7.1765,-7.1839,-7.1841,-7.1943,-7.1965,-7.1969,-7.2053,-7.2044,-7.2138,-7.2131,-7.2281,-7.226,-7.2267,-7.2262,-7.2364,-7.2355,-7.2699,-7.2742,-7.2437,-7.244,-7.2442,0,-7.1616,-7.1704,-7.1749,-7.18,-7.1827,-7.1909,-7.1957,-7.1937,-7.1989,-7.2046,-7.2113,-7.2193,-7.2256,-7.2394,-7.2403,-7.2475,-7.2455,-7.2571,-7.2465,-7.2471,-7.2456,-7.2451,-7.246,-7.2591,-7.2595,-7.2598,-7.26,0,-7.1887,-7.1881,-7.1953,-7.2025,-7.2084,-7.214,-7.219,-7.2234,-7.2218,-7.2279,-7.2365,-7.2415,-7.2511,-7.2591,-7.2658,-7.2679,-7.2638,-7.2633,-7.266,-7.267,-7.267,-7.2671,-7.2323,-7.2625,-7.2623,-7.2621,-7.2619,-7.2618,-7.2083,-7.2159,-7.2202,-7.2284,-7.2319,-7.2367,-7.2438,-7.245,-7.2522,-7.26,-7.2584,-7.2681,-7.2722,-7.2808,-7.2836,-7.2911,-7.2869,-7.2908,-7.2918,-7.2928,-7.294,-7.2659,-7.2923,-7.2922,-7.2922,-7.2921,-7.292,0,-7.2351,-7.2376,-7.2451,-7.2524,-7.2588,-7.2544,-7.2596,-7.2652,-7.2739,-7.2782,-7.2845,-7.2944,-7.3021,-7.3037,-7.311,-7.3166,-7.3149,-7.3186,-7.3182,-7.3187,-7.2974,-7.2943,-7.3199,-7.3199,-7.3199,-7.3199,-7.3199,-7.3199,-7.2498,-7.2624,-7.2623,-7.2765,-7.2788,-7.2885,-7.2919,-7.2962,-7.2996,-7.3109,-7.3173,-7.3183,-7.3215,-7.329,-7.3358,-7.336,-7.3389,-7.3435,-7.343,-7.323,-7.3202,-7.3176,-7.3146,-7.3441,-7.3441,-7.3636,-7.3638,-7.3639]}]]